User: anonymous   Login
Location: Unspecified
(0.0000°N, 0.0000°E)
Time: 02:39:29
(UTC+00:00)
Language:

GOSAT - Orbit

View from above orbital plane
View from above orbital plane
View from above satellite
View from above satellite

Ground track
Ground track

The orbit data is extracted from the following two-line orbital elements,

1 33492U 09002A   16237.43093570  .00000085  00000-0  23585-4 0  9992
2 33492  98.1036 345.9233 0001634  87.7372 272.4022 14.67532253406307
Epoch (UTC): 24 August 2016 10:20:32
Eccentricity: 0.0001634
inclination: 98.1036°
perigee height: 668 km
apogee height: 670 km
right ascension of ascending node: 345.9233°
argument of perigee: 87.7372°
revolutions per day: 14.67532253
mean anomaly at epoch: 272.4022°
orbit number at epoch: 40630

The dashed part of the orbit path shows where the satellite is in the earth's shadow,  

DLR